Location: Chino
(34.0122°N, 117.6889°W)
Time: 13:38:41
(UTC+00:00)

Cosmos 2100 Rocket - Pass Details

Date: 13 February 2026
Orbit: 954 x 1001 km, 82.9° (Epoch: 12 March)

Event Time Altitude Azimuth Distance (km) Brightness Sun altitude
Rises 14:03:42 0° 189° (S) 3,706 7.1 -7.6°
Reaches altitude 10° 14:06:13 10° 191° (SSW) 2,761 6.4 -7.1°
Maximum altitude 14:12:34 74° 276° (W) 1,037 4.0 -5.8°
Drops below altitude 10° 14:18:55 10° 2° (N) 2,765 6.3 -4.5°
Sets 14:21:28 0° 4° (N) 3,712 6.9 -4.0°
